Tracking 35237 objects as of 4-Sep-2026
HD Live streaming from Space Station
objects crossing your sky now

ELECTRON R/B


ELECTRON R/B is no longer on orbit


NORAD ID: 69647
Int'l Code: 2026-142B
Launch date: June 19, 2026
Source: United States (US)
Launch site: Rocket Lab Launch Complex (RLLC)
Decay date: 2026-06-28

Note: This is a ROCKET BODY
Your satellite tracking list
Your tracking list is empty




NASA's NSSDC Master Catalog

Two Line Element Set (TLE):
1 69647U 26142B   26179.00478352  .14944676  21215-5  19484-3 0  9997
2 69647  97.4156  77.4172 0048682 229.4032 130.3029 16.43706985  1383
Source of the keplerian elements: AFSPC